[[{"header":{"parameterUnit":"m.s-1","parameterCategory":1,"la1":30.2991,"la2":30.254,"lo1":-89.0895,"lo2":-89.0444,"dy":0.0017,"dx":0.0017,"nx":28,"ny":28,"refTime":"2024-07-16T03:00:00:Z","depth":0,"parameterNumber":2,"parameterNumberName":"U-component_of_WINDS"},"data":[0,0,0,0,0,0,0,0,0,0,0,0,0,0,0,0,0,0,0,0,0,0,0,0,0,0,0,0,0,0,0,0,0,0,0,0,0,0,0,0,0,0,0,0,0,0,0,0,0,0,0,0,0,0,0,0,0,0,2.2168,2.2168,0,2.2176,2.2176,2.2176,2.213,2.2129,2.2128,2.2127,2.2136,2.2138,2.2139,0,0,0,0,0,0,0,0,0,0,0,0,0,2.2113,2.2114,2.2168,2.2168,2.2168,2.2176,2.2176,2.2176,2.2131,2.2129,2.2127,2.2126,2.2136,2.2138,2.2139,0,0,0,0,0,0,0,0,0,0,0,0,0,2.2131,2.2115,2.2168,2.2146,2.2144,2.2176,2.2176,2.2176,2.2131,2.2129,2.2127,2.2125,2.2135,2.2137,2.214,2.2193,0,0,2.2147,2.2147,0,0,0,0,0,0,0,0,2.213,2.2133,2.2149,2.2148,2.2146,2.215,2.216,2.2182,2.2131,2.2136,2.2126,2.2124,2.2143,2.2144,2.215,2.2194,2.2194,2.2147,2.2148,2.2149,2.215,0,0,0,0,0,0,0,2.2129,2.2132,2.2171,2.215,2.2148,2.2136,2.2137,2.2164,2.215,2.2136,2.2132,2.2134,2.2141,2.2148,2.215,2.2194,2.2147,2.2149,2.215,2.2151,2.228,2.2282,0,0,0,0,0,0,2.213,2.2131,2.2171,2.2171,2.2133,2.2139,2.2139,2.2151,2.215,2.2148,2.2135,2.2132,2.2145,2.2147,2.215,2.2211,2.2149,2.2151,2.2152,2.2278,2.228,2.2282,0,0,0,0,0,0,2.2129,2.2134,2.2171,2.2151,2.2154,2.2142,2.2155,2.2152,2.2159,2.215,2.2147,2.2145,2.2144,2.2147,2.2182,2.2211,2.2152,2.2154,2.2275,2.2278,2.2281,2.2334,0,0,0,0,0,0,2.2128,2.2134,2.2154,2.2151,2.2156,2.2203,2.2157,2.2154,2.2162,2.2157,2.2158,2.2156,2.2142,2.2179,2.2184,2.2213,2.2156,2.2272,2.2277,2.228,2.233,2.2339,2.2346,0,0,0,0,0,2.2126,2.217,2.2156,2.2161,2.2181,2.2204,2.2207,2.219,2.2165,2.2185,2.2179,2.2156,2.2207,2.2183,2.2189,2.2218,2.2271,2.2275,2.228,2.2326,2.2337,2.2346,0,0,0,0,0,0,2.2177,2.2169,2.2153,2.2197,2.2202,2.2197,2.2221,2.2202,2.2214,2.2209,2.2188,2.2188,2.2227,2.2226,2.22,2.2269,2.2234,2.224,2.2268,2.2278,2.2286,2.2285,2.2158,0,0,0,0,0,2.2193,2.2213,2.2205,2.2245,2.2248,2.2234,2.2244,2.223,2.2234,2.2236,2.2233,2.2238,2.2255,2.2267,2.2282,2.233,2.2328,2.2353,2.2361,2.2368,2.2373,2.2396,2.2407,2.2298,2.2298,2.2298,0,0,2.2227,2.2225,2.2239,2.2255,2.2257,2.2277,2.2236,2.226,2.2275,2.224,2.2272,2.227,2.2274,2.2316,2.2334,2.2316,2.2403,2.2374,2.2379,2.2381,2.2402,2.2413,2.2422,2.2301,2.23,2.23,0,0,2.2299,2.2301,2.2332,2.2335,2.2338,2.2328,2.2336,2.2334,2.2331,2.2363,2.2336,2.2354,2.2384,2.2387,2.2393,2.2465,2.2444,2.2471,2.2514,2.2537,2.2546,2.2553,2.2577,2.2586,2.2476,2.2476,2.2477,0,2.2341,2.2371,2.2352,2.2377,2.2384,2.2352,2.2384,2.2388,2.2396,2.2401,2.2382,2.2417,2.2418,2.2459,2.2476,2.2483,2.249,2.247,2.2546,2.2553,2.256,2.2583,2.2592,2.248,2.2479,2.2479,2.2479,0,2.2422,2.2443,2.2468,2.2476,2.2486,2.2515,2.2499,2.2512,2.2497,2.249,2.2522,2.2522,2.2535,2.2544,2.2531,2.2583,2.2572,2.255,2.2514,2.2574,2.2595,2.2603,2.2484,2.2483,2.2482,2.2481,0,0,2.2526,2.2521,2.2531,2.2533,2.2534,2.255,2.2577,2.2589,2.26,2.2606,2.2628,2.2653,2.2632,2.2639,2.2625,2.2646,2.2701,2.2621,2.262,2.2634,2.2756,2.2772,2.2783,2.2687,2.2689,2.269,2.2756,0,2.2595,2.264,2.2623,2.2669,2.2687,2.2657,2.268,2.2683,2.2677,2.2691,2.2685,2.2702,2.2674,2.2677,2.2697,2.269,2.2725,2.2685,2.2706,2.2707,2.2705,2.2794,2.2811,2.2873,2.2764,2.2765,2.2766,0,2.2682,2.2691,2.2738,2.2734,2.2741,2.2762,2.2771,2.2786,2.2788,2.2782,2.2789,2.2771,2.2796,2.2762,2.2796,2.277,2.2777,2.2776,2.2777,2.2778,2.2739,2.2795,2.2892,2.2901,2.2779,2.2778,2.2777,0,2.2751,2.2775,2.2806,2.2809,2.2806,2.2821,2.282,2.282,2.2828,2.2837,2.2842,2.2854,2.286,2.2869,2.2854,2.2831,2.289,2.2855,2.2885,2.2886,2.2898,2.2898,2.2997,2.2906,2.2906,2.2906,2.2905,0,2.2829,2.2859,2.2837,2.2856,2.2888,2.2868,2.2901,2.2897,2.2897,2.2914,2.289,2.2907,2.2887,2.2902,2.289,2.292,2.2923,2.2919,2.2915,2.292,2.292,2.2924,2.2919,2.2908,2.2907,2.2907,2.2907,0,2.2912,2.2898,2.293,2.2923,2.2922,2.2946,2.294,2.2958,2.2949,2.2972,2.2976,2.2963,2.2979,2.2965,2.2982,2.2974,2.3012,2.3004,2.3011,2.3008,2.3039,2.3035,2.3142,2.3154,2.3057,2.3058,2.3059,0,2.2962,2.2984,2.2979,2.2989,2.2989,2.3005,2.3013,2.2994,2.3003,2.3006,2.3023,2.3037,2.3047,2.3074,2.3067,2.3078,2.3069,2.3105,2.307,2.3074,2.3067,2.3066,2.3067,2.3112,2.3113,2.3114,2.3115,0,2.3051,2.3043,2.3055,2.3064,2.3074,2.3081,2.3085,2.3095,2.3075,2.3087,2.3102,2.311,2.3126,2.314,2.3149,2.3148,2.3128,2.3126,2.3133,2.3138,2.3141,2.3138,2.3029,2.3123,2.3123,2.3122,2.3122,2.3121,2.3118,2.3135,2.3134,2.3148,2.3149,2.3154,2.3169,2.3162,2.3175,2.3185,2.3174,2.3193,2.3193,2.3203,2.3205,2.3219,2.3204,2.3215,2.3218,2.322,2.3224,2.314,2.3221,2.3221,2.3221,2.3221,2.322,0,2.3204,2.3202,2.3215,2.3221,2.3232,2.3212,2.3216,2.3226,2.3243,2.3245,2.3255,2.3272,2.3286,2.3279,2.329,2.3303,2.3294,2.3306,2.3304,2.3304,2.3238,2.323,2.3313,2.3313,2.3313,2.3313,2.3313,2.3313,2.3251,2.3279,2.327,2.3298,2.3296,2.3313,2.3317,2.3321,2.3322,2.3343,2.3353,2.3348,2.3347,2.3357,2.3368,2.3366,2.337,2.3386,2.338,2.3318,2.3309,2.33,2.3292,2.3387,2.3388,2.3445,2.3445,2.3446]},{"header":{"parameterUnit":"m.s-1","parameterCategory":1,"la1":30.2991,"la2":30.254,"lo1":-89.0895,"lo2":-89.0444,"dy":0.0017,"dx":0.0017,"nx":28,"ny":28,"refTime":"2024-07-16T03:00:00:Z","depth":0,"parameterNumber":3,"parameterNumberName":"V-component_of_WINDS"},"data":[0,0,0,0,0,0,0,0,0,0,0,0,0,0,0,0,0,0,0,0,0,0,0,0,0,0,0,0,0,0,0,0,0,0,0,0,0,0,0,0,0,0,0,0,0,0,0,0,0,0,0,0,0,0,0,0,0,0,5.2068,5.2068,0,5.206,5.206,5.2059,5.2047,5.2047,5.2047,5.2047,5.2036,5.2036,5.2036,0,0,0,0,0,0,0,0,0,0,0,0,0,5.2073,5.2073,5.2068,5.2068,5.2068,5.206,5.206,5.2059,5.2047,5.2047,5.2047,5.2047,5.2036,5.2036,5.2036,0,0,0,0,0,0,0,0,0,0,0,0,0,5.2069,5.2073,5.2068,5.2061,5.206,5.206,5.206,5.2059,5.2047,5.2047,5.2047,5.2046,5.2036,5.2036,5.2036,5.2041,0,0,5.2035,5.2035,0,0,0,0,0,0,0,0,5.2069,5.2068,5.2062,5.2062,5.2061,5.2054,5.2057,5.2053,5.2047,5.2052,5.2047,5.2046,5.2042,5.2042,5.2041,5.2041,5.204,5.2035,5.2035,5.2035,5.2035,0,0,0,0,0,0,0,5.2069,5.2069,5.2065,5.2062,5.2061,5.2058,5.2057,5.2057,5.2049,5.2052,5.2051,5.205,5.2042,5.2041,5.204,5.204,5.2035,5.2035,5.2035,5.2035,5.2045,5.2045,0,0,0,0,0,0,5.2071,5.2069,5.2065,5.2065,5.2064,5.2058,5.2057,5.2057,5.2049,5.2048,5.205,5.205,5.2041,5.204,5.204,5.2046,5.2035,5.2035,5.2035,5.2044,5.2045,5.2045,0,0,0,0,0,0,5.2071,5.2071,5.2065,5.2067,5.2066,5.2058,5.2058,5.2057,5.2056,5.2048,5.2046,5.2051,5.2041,5.204,5.2041,5.2045,5.2035,5.2035,5.2044,5.2044,5.2045,5.2057,0,0,0,0,0,0,5.2071,5.2071,5.2073,5.2067,5.2066,5.2067,5.2058,5.2057,5.2056,5.2054,5.2048,5.2047,5.2041,5.2041,5.2041,5.2045,5.2035,5.2043,5.2044,5.2045,5.2056,5.2058,5.206,0,0,0,0,0,5.2071,5.2076,5.2073,5.2072,5.2068,5.2067,5.2067,5.206,5.2056,5.2058,5.2053,5.2047,5.2045,5.2042,5.2041,5.2045,5.2043,5.2044,5.2045,5.2056,5.2058,5.206,0,0,0,0,0,0,5.2082,5.2075,5.2071,5.2074,5.2072,5.2065,5.2067,5.2063,5.2061,5.2059,5.2051,5.205,5.2052,5.2049,5.2045,5.205,5.2043,5.2044,5.2052,5.2054,5.2055,5.2056,5.2035,0,0,0,0,0,5.2085,5.2085,5.2079,5.2082,5.2081,5.2075,5.2074,5.207,5.2066,5.2065,5.206,5.2056,5.2055,5.2054,5.2053,5.2056,5.2055,5.2059,5.206,5.2062,5.2062,5.2064,5.2066,5.2048,5.2048,5.2047,0,0,5.209,5.2086,5.2087,5.2084,5.2081,5.2082,5.2074,5.2074,5.2074,5.2064,5.2065,5.2062,5.2058,5.206,5.2061,5.2057,5.2067,5.2063,5.2064,5.2063,5.2065,5.2067,5.2068,5.2048,5.2048,5.2048,0,0,5.21,5.2097,5.21,5.2098,5.2094,5.209,5.2091,5.2086,5.2083,5.2084,5.2077,5.2077,5.2075,5.2072,5.2071,5.2081,5.2075,5.2081,5.2089,5.2091,5.2092,5.2093,5.2097,5.2098,5.2082,5.2082,5.2082,0,5.2107,5.2107,5.2102,5.2103,5.2102,5.2094,5.2097,5.2095,5.2091,5.209,5.2086,5.2084,5.2081,5.2083,5.2085,5.2084,5.2085,5.2081,5.2092,5.2094,5.2095,5.2098,5.2099,5.2082,5.2082,5.2082,5.2082,0,5.2116,5.2117,5.2119,5.2116,5.2116,5.2117,5.2112,5.2112,5.2108,5.2104,5.2106,5.2102,5.2099,5.2099,5.2095,5.2101,5.2099,5.2094,5.2087,5.2097,5.21,5.2101,5.2083,5.2083,5.2083,5.2083,0,0,5.2131,5.2126,5.2127,5.2126,5.2122,5.2122,5.2124,5.2122,5.2122,5.212,5.2121,5.2121,5.2116,5.2114,5.211,5.2112,5.212,5.2107,5.2106,5.2109,5.2127,5.213,5.2131,5.2117,5.2117,5.2117,5.2127,0,5.214,5.2142,5.2138,5.2142,5.2142,5.2136,5.2137,5.2135,5.2132,5.2132,5.2128,5.2128,5.2123,5.2121,5.2123,5.2119,5.2124,5.2118,5.2117,5.2117,5.2118,5.2133,5.2136,5.2145,5.2128,5.2128,5.2128,0,5.215,5.2149,5.2153,5.215,5.215,5.2151,5.215,5.215,5.2148,5.2145,5.2144,5.2139,5.2141,5.2135,5.2136,5.2133,5.2132,5.213,5.2131,5.213,5.2123,5.2132,5.2148,5.2149,5.213,5.213,5.213,0,5.216,5.216,5.2162,5.2162,5.2158,5.2159,5.2158,5.2155,5.2155,5.2153,5.2153,5.2152,5.2151,5.215,5.2145,5.2141,5.2148,5.2141,5.2145,5.2145,5.2146,5.2146,5.2162,5.2147,5.2147,5.2147,5.2147,0,5.217,5.2172,5.2167,5.2168,5.2171,5.2167,5.2169,5.2167,5.2165,5.2166,5.216,5.2161,5.2155,5.2155,5.2151,5.2153,5.2153,5.2151,5.215,5.2151,5.2151,5.215,5.2149,5.2147,5.2147,5.2147,5.2147,0,5.2181,5.2177,5.218,5.2177,5.2176,5.2178,5.2175,5.2176,5.2174,5.2175,5.2175,5.217,5.217,5.2166,5.2164,5.2162,5.2165,5.2163,5.2166,5.2165,5.2169,5.2169,5.2184,5.2186,5.2171,5.2171,5.2171,0,5.2187,5.2189,5.2186,5.2187,5.2186,5.2187,5.2186,5.2182,5.2182,5.218,5.2182,5.2182,5.2181,5.2181,5.2178,5.2177,5.2174,5.218,5.2174,5.2175,5.2174,5.2174,5.2174,5.2181,5.2181,5.2181,5.2181,0,5.2198,5.2196,5.2197,5.2197,5.2197,5.2197,5.2196,5.2197,5.2192,5.2192,5.2193,5.2193,5.2192,5.2192,5.2191,5.2189,5.2184,5.2183,5.2184,5.2185,5.2187,5.2185,5.2169,5.2183,5.2182,5.2182,5.2182,5.2182,5.2206,5.2208,5.2207,5.2207,5.2207,5.2206,5.2208,5.2206,5.2206,5.2205,5.2203,5.2204,5.2202,5.22,5.2199,5.2199,5.2196,5.2198,5.2198,5.2198,5.2199,5.2187,5.2199,5.2199,5.2199,5.2199,5.2199,0,5.2216,5.2216,5.2217,5.2216,5.2217,5.2214,5.2213,5.2214,5.2215,5.2214,5.2214,5.2215,5.2215,5.2212,5.2211,5.2212,5.221,5.2212,5.2212,5.2212,5.2201,5.2201,5.2214,5.2214,5.2214,5.2214,5.2214,5.2214,5.2222,5.2225,5.2223,5.2226,5.2225,5.2226,5.2226,5.2226,5.2225,5.2227,5.2227,5.2225,5.2224,5.2223,5.2223,5.2222,5.2222,5.2225,5.2223,5.2214,5.2212,5.2211,5.221,5.2225,5.2225,5.2233,5.2233,5.2233]}]]